[[{"header":{"parameterUnit":"m.s-1","parameterCategory":1,"la1":30.2991,"la2":30.254,"lo1":-89.0895,"lo2":-89.0444,"dy":0.0017,"dx":0.0017,"nx":28,"ny":28,"refTime":"2024-08-16T03:00:00:Z","depth":0,"parameterNumber":2,"parameterNumberName":"U-component_of_WINDS"},"data":[0,0,0,0,0,0,0,0,0,0,0,0,0,0,0,0,0,0,0,0,0,0,0,0,0,0,0,0,0,0,0,0,0,0,0,0,0,0,0,0,0,0,0,0,0,0,0,0,0,0,0,0,0,0,0,0,0,0,0.7959,0.7959,0,0.798,0.798,0.798,0.799,0.799,0.799,0.799,0.801,0.801,0.8011,0,0,0,0,0,0,0,0,0,0,0,0,0,0.7924,0.7925,0.7959,0.7959,0.796,0.798,0.798,0.798,0.799,0.799,0.799,0.799,0.801,0.801,0.8011,0,0,0,0,0,0,0,0,0,0,0,0,0,0.7942,0.7925,0.7959,0.7967,0.7968,0.798,0.798,0.798,0.799,0.799,0.799,0.799,0.8009,0.801,0.8011,0.8016,0,0,0.8013,0.8014,0,0,0,0,0,0,0,0,0.7941,0.7943,0.7966,0.7967,0.7968,0.7983,0.7975,0.7992,0.799,0.7982,0.799,0.799,0.8001,0.8002,0.8006,0.8017,0.8017,0.8013,0.8014,0.8014,0.8014,0,0,0,0,0,0,0,0.794,0.7942,0.7967,0.7966,0.7967,0.7968,0.7971,0.7978,0.7991,0.7983,0.7983,0.7986,0.8001,0.8005,0.8006,0.8018,0.8013,0.8014,0.8014,0.8015,0.803,0.803,0,0,0,0,0,0,0.7937,0.7941,0.7967,0.7968,0.7954,0.7969,0.7972,0.7978,0.7991,0.7993,0.7986,0.7986,0.8004,0.8006,0.8007,0.8012,0.8014,0.8015,0.8015,0.803,0.803,0.803,0,0,0,0,0,0,0.7937,0.794,0.7966,0.7955,0.7958,0.797,0.7976,0.7978,0.7982,0.7993,0.7995,0.7988,0.8004,0.8006,0.8013,0.8013,0.8015,0.8016,0.8031,0.803,0.803,0.8023,0,0,0,0,0,0,0.7936,0.7939,0.7942,0.7955,0.7959,0.7972,0.7976,0.7979,0.7984,0.7984,0.7996,0.7998,0.8004,0.8012,0.8014,0.8014,0.8016,0.8031,0.803,0.803,0.8023,0.8022,0.8022,0,0,0,0,0,0.7934,0.794,0.7942,0.7945,0.7963,0.7972,0.7975,0.7983,0.7984,0.7986,0.7993,0.7997,0.8013,0.8012,0.8015,0.8015,0.8031,0.8031,0.803,0.8023,0.8022,0.8022,0,0,0,0,0,0,0.7927,0.7941,0.7945,0.7954,0.7962,0.7974,0.7978,0.7982,0.7989,0.7989,0.7998,0.8,0.8006,0.8011,0.8011,0.8019,0.8022,0.8022,0.8016,0.8015,0.8014,0.8013,0.8017,0,0,0,0,0,0.7926,0.7934,0.7946,0.7953,0.7957,0.7966,0.7971,0.7976,0.7984,0.7987,0.7995,0.8002,0.8008,0.8012,0.8018,0.8024,0.8025,0.8025,0.8024,0.8024,0.8024,0.8025,0.8024,0.803,0.803,0.803,0,0,0.7925,0.7934,0.7938,0.7951,0.7958,0.7964,0.7969,0.7976,0.798,0.7988,0.7995,0.8,0.8008,0.8014,0.8017,0.8019,0.8022,0.8023,0.8023,0.8023,0.8024,0.8024,0.8023,0.803,0.803,0.803,0,0,0.7927,0.7935,0.7941,0.7947,0.7956,0.7962,0.7963,0.7974,0.7978,0.7985,0.7991,0.7995,0.8006,0.8011,0.8015,0.8015,0.8019,0.8017,0.8014,0.8014,0.8014,0.8014,0.8012,0.8012,0.8017,0.8017,0.8017,0,0.7924,0.7935,0.7943,0.7949,0.7953,0.7961,0.7965,0.7971,0.7982,0.7984,0.7986,0.7998,0.8005,0.801,0.801,0.8014,0.8014,0.8016,0.8013,0.8013,0.8013,0.8011,0.8011,0.8016,0.8016,0.8016,0.8017,0,0.793,0.7937,0.794,0.795,0.7955,0.7961,0.7968,0.7972,0.7976,0.7981,0.7987,0.7994,0.8001,0.8003,0.8007,0.8009,0.8009,0.8012,0.8015,0.8012,0.801,0.801,0.8016,0.8016,0.8016,0.8016,0,0,0.7929,0.7942,0.7943,0.7946,0.7956,0.7961,0.7966,0.7973,0.7975,0.7981,0.7984,0.7992,0.7994,0.7999,0.8003,0.8004,0.8001,0.8007,0.8007,0.8004,0.8001,0.7998,0.7998,0.8004,0.8004,0.8004,0.8,0,0.793,0.794,0.7946,0.7952,0.7957,0.7963,0.7967,0.7972,0.7977,0.7981,0.7985,0.799,0.7993,0.7996,0.7997,0.8002,0.8001,0.8002,0.8005,0.8005,0.8003,0.7997,0.7995,0.7991,0.8,0.8,0.8,0,0.7934,0.794,0.7947,0.7954,0.7956,0.796,0.7965,0.7969,0.7975,0.7978,0.7981,0.7986,0.7989,0.7991,0.7995,0.7996,0.7997,0.7999,0.7999,0.7999,0.8002,0.7996,0.799,0.7989,0.7999,0.7999,0.7999,0,0.7931,0.794,0.7945,0.7948,0.7957,0.7959,0.7962,0.7968,0.7971,0.7975,0.7977,0.7982,0.7984,0.7987,0.7991,0.7993,0.7993,0.7997,0.7995,0.7995,0.7995,0.7995,0.7988,0.7997,0.7997,0.7997,0.7997,0,0.7932,0.7935,0.7943,0.7946,0.7949,0.7956,0.7958,0.7962,0.7967,0.7969,0.7974,0.7976,0.7983,0.7985,0.7989,0.799,0.7991,0.7992,0.7993,0.7992,0.7991,0.7992,0.7993,0.7997,0.7997,0.7997,0.7997,0,0.7929,0.7934,0.794,0.7947,0.7949,0.795,0.7956,0.7958,0.7962,0.7965,0.7966,0.7972,0.7974,0.7979,0.7984,0.7986,0.7986,0.7988,0.7984,0.7984,0.7982,0.7981,0.7975,0.7974,0.7984,0.7984,0.7984,0,0.7929,0.7931,0.7938,0.794,0.7944,0.7947,0.795,0.7955,0.7957,0.7962,0.7963,0.7966,0.7969,0.7973,0.7977,0.7979,0.7981,0.7978,0.7981,0.7979,0.7979,0.7979,0.7978,0.7977,0.7977,0.7977,0.7977,0,0.7928,0.793,0.7934,0.7937,0.794,0.7944,0.7947,0.7949,0.7954,0.7956,0.7959,0.7961,0.7965,0.7967,0.797,0.7972,0.7975,0.7976,0.7975,0.7974,0.7971,0.7971,0.7981,0.7976,0.7976,0.7976,0.7976,0.7976,0.7925,0.7927,0.7932,0.7935,0.7938,0.7941,0.7942,0.7946,0.7948,0.7952,0.7954,0.7956,0.7959,0.7963,0.7965,0.7966,0.7967,0.7967,0.7967,0.7966,0.7965,0.7971,0.7966,0.7966,0.7966,0.7966,0.7966,0,0.7923,0.7926,0.7929,0.7933,0.7935,0.7938,0.7941,0.7942,0.7944,0.7947,0.7949,0.7951,0.7952,0.7956,0.7957,0.7957,0.7958,0.7957,0.7957,0.7957,0.7964,0.7964,0.7956,0.7956,0.7956,0.7956,0.7956,0.7956,0.7923,0.7925,0.7927,0.793,0.7932,0.7935,0.7936,0.7938,0.794,0.7941,0.7943,0.7945,0.7947,0.7948,0.7949,0.795,0.795,0.7948,0.7949,0.7956,0.7957,0.7958,0.7957,0.7948,0.7948,0.7942,0.7942,0.7942]},{"header":{"parameterUnit":"m.s-1","parameterCategory":1,"la1":30.2991,"la2":30.254,"lo1":-89.0895,"lo2":-89.0444,"dy":0.0017,"dx":0.0017,"nx":28,"ny":28,"refTime":"2024-08-16T03:00:00:Z","depth":0,"parameterNumber":3,"parameterNumberName":"V-component_of_WINDS"},"data":[0,0,0,0,0,0,0,0,0,0,0,0,0,0,0,0,0,0,0,0,0,0,0,0,0,0,0,0,0,0,0,0,0,0,0,0,0,0,0,0,0,0,0,0,0,0,0,0,0,0,0,0,0,0,0,0,0,0,2.5111,2.5111,0,2.512,2.512,2.512,2.5092,2.5091,2.509,2.5089,2.5098,2.5099,2.51,0,0,0,0,0,0,0,0,0,0,0,0,0,2.5066,2.5067,2.5111,2.5111,2.5111,2.512,2.512,2.512,2.5092,2.5091,2.509,2.5089,2.5098,2.5099,2.51,0,0,0,0,0,0,0,0,0,0,0,0,0,2.5081,2.5067,2.5111,2.5098,2.5097,2.512,2.512,2.5121,2.5092,2.5091,2.509,2.5089,2.5097,2.5099,2.51,2.5136,0,0,2.5105,2.5106,0,0,0,0,0,0,0,0,2.508,2.5083,2.51,2.5099,2.5098,2.5104,2.5107,2.5126,2.5093,2.5094,2.5089,2.5088,2.5101,2.5102,2.5106,2.5136,2.5136,2.5105,2.5106,2.5107,2.5107,0,0,0,0,0,0,0,2.5079,2.5082,2.5115,2.51,2.5099,2.5091,2.5092,2.5111,2.5105,2.5094,2.5092,2.5093,2.51,2.5105,2.5106,2.5137,2.5105,2.5106,2.5107,2.5108,2.5192,2.5194,0,0,0,0,0,0,2.508,2.5082,2.5114,2.5115,2.5086,2.5093,2.5094,2.5103,2.5104,2.5103,2.5095,2.5092,2.5103,2.5105,2.5107,2.5146,2.5107,2.5108,2.5109,2.5191,2.5193,2.5194,0,0,0,0,0,0,2.5079,2.5083,2.5114,2.5098,2.5101,2.5095,2.5106,2.5104,2.5109,2.5105,2.5103,2.5101,2.5102,2.5104,2.5128,2.5146,2.5109,2.511,2.519,2.5192,2.5194,2.5227,0,0,0,0,0,0,2.5078,2.5083,2.5098,2.5098,2.5102,2.5136,2.5107,2.5105,2.5112,2.5109,2.5111,2.511,2.5101,2.5126,2.513,2.5147,2.5111,2.5188,2.5191,2.5193,2.5224,2.523,2.5234,0,0,0,0,0,2.5077,2.5107,2.5098,2.5103,2.512,2.5137,2.5139,2.513,2.5114,2.5127,2.5124,2.5109,2.5144,2.5129,2.5132,2.5151,2.5187,2.519,2.5193,2.5222,2.5228,2.5234,0,0,0,0,0,0,2.5109,2.5107,2.5097,2.5129,2.5133,2.5132,2.5149,2.5138,2.5146,2.5143,2.513,2.5131,2.5156,2.5156,2.5139,2.5184,2.5162,2.5166,2.5183,2.5189,2.5195,2.5193,2.5113,0,0,0,0,0,2.512,2.5135,2.5132,2.516,2.5163,2.5156,2.5163,2.5155,2.5159,2.516,2.5159,2.5163,2.5174,2.5182,2.5193,2.5224,2.5223,2.5239,2.5244,2.5248,2.5251,2.5265,2.5271,2.5204,2.5204,2.5204,0,0,2.5142,2.5143,2.5153,2.5166,2.5169,2.5183,2.5158,2.5175,2.5185,2.5163,2.5184,2.5184,2.5187,2.5214,2.5226,2.5215,2.5269,2.5252,2.5255,2.5256,2.5269,2.5275,2.5281,2.5206,2.5206,2.5205,0,0,2.519,2.5193,2.5215,2.5218,2.5222,2.5217,2.5222,2.5222,2.5221,2.5242,2.5225,2.5237,2.5257,2.5259,2.5263,2.531,2.5296,2.5313,2.534,2.5354,2.5359,2.5364,2.5378,2.5383,2.5317,2.5317,2.5317,0,2.5217,2.5239,2.5228,2.5246,2.5251,2.5232,2.5253,2.5256,2.5263,2.5267,2.5254,2.5278,2.5279,2.5305,2.5316,2.5321,2.5325,2.5313,2.5359,2.5364,2.5368,2.5381,2.5387,2.5319,2.5319,2.5318,2.5318,0,2.5271,2.5286,2.5304,2.531,2.5317,2.5337,2.5328,2.5336,2.5327,2.5323,2.5344,2.5344,2.5353,2.5359,2.5351,2.5383,2.5375,2.5362,2.5339,2.5376,2.5389,2.5394,2.5322,2.5321,2.532,2.532,0,0,2.534,2.5339,2.5345,2.5347,2.5348,2.5359,2.5377,2.5386,2.5392,2.5397,2.541,2.5427,2.5414,2.5418,2.5409,2.5422,2.5455,2.5406,2.5406,2.5413,2.5488,2.5497,2.5503,2.5447,2.5448,2.5448,2.5487,0,2.5385,2.5415,2.5405,2.5435,2.5448,2.5429,2.5444,2.5446,2.5442,2.5451,2.5446,2.5457,2.544,2.5442,2.5454,2.5449,2.547,2.5446,2.5457,2.5457,2.5455,2.551,2.552,2.5557,2.5492,2.5493,2.5493,0,2.5442,2.5448,2.548,2.5477,2.5482,2.5495,2.5501,2.5511,2.5512,2.5508,2.5512,2.55,2.5515,2.5494,2.5514,2.5498,2.5502,2.55,2.5501,2.5501,2.5477,2.5509,2.5569,2.5573,2.5501,2.5501,2.55,0,2.5486,2.5503,2.5523,2.5525,2.5523,2.5532,2.5532,2.5532,2.5537,2.5542,2.5544,2.5551,2.5554,2.5559,2.5549,2.5535,2.557,2.5548,2.5565,2.5565,2.5572,2.5572,2.5631,2.5578,2.5578,2.5578,2.5578,0,2.5537,2.5556,2.5542,2.5554,2.5574,2.5562,2.5582,2.558,2.5579,2.559,2.5574,2.5584,2.5571,2.5579,2.5571,2.5587,2.559,2.5586,2.5583,2.5586,2.5586,2.5587,2.5584,2.5579,2.5579,2.5579,2.5578,0,2.5589,2.5581,2.5601,2.5597,2.5596,2.5611,2.5607,2.5617,2.5612,2.5625,2.5627,2.5618,2.5627,2.5617,2.5626,2.562,2.5641,2.5636,2.5641,2.5639,2.5656,2.5653,2.5717,2.5723,2.5667,2.5668,2.5669,0,2.5621,2.5635,2.5632,2.5637,2.5638,2.5647,2.5652,2.564,2.5645,2.5646,2.5655,2.5663,2.5668,2.5682,2.5676,2.5681,2.5675,2.5696,2.5675,2.5677,2.5672,2.5671,2.5671,2.57,2.5701,2.5702,2.5702,0,2.5678,2.5672,2.5679,2.5684,2.569,2.5694,2.5696,2.5701,2.5688,2.5695,2.5703,2.5707,2.5714,2.5721,2.5725,2.5723,2.571,2.5709,2.5713,2.5715,2.5716,2.5714,2.5651,2.5707,2.5707,2.5706,2.5706,2.5706,2.5719,2.573,2.5728,2.5736,2.5736,2.5738,2.5747,2.5742,2.5749,2.5754,2.5746,2.5756,2.5754,2.5758,2.5757,2.5764,2.5755,2.5761,2.5762,2.5763,2.5765,2.5717,2.5765,2.5765,2.5765,2.5765,2.5764,0,2.5773,2.5771,2.5778,2.5781,2.5787,2.5774,2.5775,2.578,2.5789,2.5789,2.5794,2.5802,2.5808,2.5802,2.5806,2.5813,2.5806,2.5814,2.5812,2.5812,2.5774,2.5769,2.5819,2.5819,2.5819,2.5819,2.5819,2.5819,2.5801,2.5818,2.5812,2.5827,2.5825,2.5834,2.5836,2.5837,2.5836,2.5846,2.5851,2.5847,2.5843,2.5847,2.5851,2.5849,2.5851,2.586,2.5855,2.582,2.5815,2.581,2.5805,2.5861,2.5861,2.5892,2.5892,2.5893]}]]